Printer-friendly version

IAU Minor Planet Center

Minor Planet Center

MPEC 2001-P46: 2001 PF14

The following Minor Planet Electronic Circular may be linked-to from your own Web pages, but must not otherwise be redistributed electronically.


Read MPEC 2001-P45 Read MPEC 2001-P47


M.P.E.C. 2001-P46                                Issued 2001 Aug. 15, 16:23 UT

     The Minor Planet Electronic Circulars contain information on unusual
         minor planets and routine data on comets.  They are published
   on behalf of Commission 20 of the International Astronomical Union by the
          Minor Planet Center, Smithsonian Astrophysical Observatory,
                          Cambridge, MA 02138, U.S.A.

             Prepared using the Tamkin Foundation Computer Network

                              MPC@CFA.HARVARD.EDU
          URL http://cfa-www.harvard.edu/iau/mpc.html  ISSN 1523-6714

                                   2001 PF14

Observations:
     K01P14F* C2001 08 12.37410 23 17 18.73 -34 26 09.6          19.0        644
     K01P14F  C2001 08 12.38406 23 17 18.54 -34 26 03.4          19.0        644
     K01P14F  C2001 08 12.39466 23 17 18.24 -34 25 56.5          18.9        644
     K01P14F  C2001 08 13.17326 23 17 04.53 -34 16 48.6                      808
     K01P14F  C2001 08 13.18611 23 17 04.13 -34 16 40.4                      808
     K01P14F  C2001 08 13.20069 23 17 03.69 -34 16 30.5                      808
     K01P14F  C2001 08 13.21493 23 17 03.28 -34 16 22.8                      808
     K01P14F  C2001 08 13.23611 23 17 02.61 -34 16 13.1                      808
     K01P14F  C2001 08 13.29317 23 17 00.69 -34 15 30.1                      808
     K01P14F  C2001 08 13.31157 23 17 00.04 -34 15 16.5                      808
     K01P14F  C2001 08 13.75628 23 16 50.06 -34 10 13.7          18.7 R      422
     K01P14F  C2001 08 13.76435223 16 49.86 -34 10 07.9          18.5 R      422
     K01P14F  C2001 08 13.76588023 16 49.81 -34 10 06.8          18.8 R      422
     K01P14F  C2001 08 14.34890 23 16 37.56 -34 03 50.1          18.8 R      649
     K01P14F  C2001 08 14.38243 23 16 36.40 -34 03 25.7          18.1 R      649
     K01P14F  C2001 08 14.40090 23 16 35.85 -34 03 13.2          18.8 R      649
     K01P14F  C2001 08 14.40875 23 16 36.18 -34 03 07.1          20.2        644
     K01P14F  C2001 08 14.42010 23 16 35.80 -34 02 58.6          20.5        644
     K01P14F  C2001 08 14.43083 23 16 35.39 -34 02 50.9          20.0        644
     K01P14F  C2001 08 14.60326 23 16 32.13 -34 00 28.7          19.2 R      428
     K01P14F  C2001 08 14.60334 23 16 31.52 -34 00 21.1          18.2 R      474
     K01P14F  C2001 08 14.60531 23 16 31.46 -34 00 19.8          18.1 R      474
     K01P14F  C2001 08 14.60705 23 16 31.42 -34 00 18.4          18.4 R      474
     K01P14F  C2001 08 14.60767 23 16 31.93 -34 00 25.1          19.1 R      428
     K01P14F  C2001 08 14.61087 23 16 31.27 -34 00 15.5          18.2 R      474
     K01P14F  C2001 08 14.61211 23 16 31.76 -34 00 22.2          19.2 R      428
     K01P14F  C2001 08 14.61781 23 16 31.01 -34 00 10.7          18.2 R      474
     K01P14F  C2001 08 14.63319 23 16 30.49 -34 00 00.0                      474
     K01P14F  C2001 08 15.54721 23 16 07.69 -33 49 07.3          18.3 R      474
     K01P14F  C2001 08 15.55068 23 16 07.57 -33 49 05.0          18.1 R      474
     K01P14F  C2001 08 15.55485 23 16 07.44 -33 49 02.2          18.1 R      474
     K01P14F  C2001 08 15.55797 23 16 07.32 -33 48 59.8          18.2 R      474
     K01P14F  C2001 08 15.57440 23 16 06.73 -33 48 48.1          17.8 R      474

Observer details:
422 Loomberah.  Observer G. J. Garradd.  0.45-m f/5.4 reflector + CCD.
428 Reedy Creek.  Observer J. Broughton.  0.25-m f/6.3 Schmidt-Cassegrain
    + CCD.
474 Mount John Observatory, Lake Tekapo.  Observer A. C. Gilmore.
    1.0-m f/7.7 reflector + CCD.
644 Palomar Mountain/NEAT.  Observers E. F. Helin, S. Pravdo, K. Lawrence,
    M. Hicks, E. Hovland, T. Bickler, J. Schroeder, L. Scherr, R. Thicksten,
    A. Deetz.  1.2-m Schmidt + CCD.
649 Powell Observatory, Louisburg.  Observer K. Smalley.  0.75-m Newtonian
    + CCD.
808 El Leoncito.  Observers H. S. Lepez,  C. E. Lopez. 0.5-m f/7.5 double
    astrograph + CCD.

Orbital elements:
2001 PF14
Epoch 2001 July 30.0 TT = JDT 2452120.5                 Spahr
M   8.05268              (2000.0)            P               Q
n   0.33224715     Peri.  253.24925     +0.37475055     +0.92428054
a   2.0645649      Node    39.00831     -0.80064751     +0.36210489
e   0.3986218      Incl.    6.62129     -0.46746720     +0.12077053
P   2.97           H   19.6           G   0.15
From 33 observations 2001 Aug. 12-15.

Ephemeris:
2001 PF14                a,e,i = 2.06, 0.40, 7                   q = 1.2416
Date    TT    R. A. (2000) Decl.     Delta      r     Elong.  Phase     V
2001 08 09    23 17.96   -35 01.0    0.311    1.285   146.7    25.7    18.8
2001 08 19    23 14.31   -33 05.6    0.329    1.313   152.6    20.8    18.8
2001 08 29    23 07.35   -30 36.6    0.357    1.346   157.1    17.0    18.9
2001 09 08    23 00.23   -27 40.2    0.397    1.384   158.0    15.8    19.2
2001 09 18    22 55.12   -24 29.1    0.451    1.425   154.8    17.5    19.6
2001 09 28    22 53.27   -21 15.0    0.518    1.470   148.9    20.6    20.0
2001 10 08    22 54.88   -18 06.6    0.600    1.518   142.0    23.9    20.5
2001 10 18    22 59.59   -15 08.0    0.695    1.567   135.0    26.7    21.0
2001 10 28    23 06.95   -12 19.4    0.803    1.618   128.1    28.9    21.4
2001 11 07    23 16.42   -09 40.1    0.922    1.669   121.5    30.4    21.8

Timothy B. Spahr             (C) Copyright 2001 MPC           M.P.E.C. 2001-P46

Read MPEC 2001-P45 Read MPEC 2001-P47


Our Web policy. Index to the CBAT/MPC/ICQ pages.


Valid HTML 4.01!